Location: Fours
(44.3167°N, 6.7000°E)
Time: 10:23:34
(UTC+00:00)

Cosmos 2227 - Pass Details

Date: 11 December 2023
Orbit: 836 x 859 km, 71.0° (Epoch: 21 February)

Event Time Altitude Azimuth Distance (km) Brightness Sun altitude
Rises 16:41:27 0° 222° (SW) 3,421 8.8 -8.3°
Reaches altitude 10° 16:44:00 10° 228° (SW) 2,487 8.0 -8.7°
Maximum altitude 16:49:30 47° 302° (WNW) 1,129 5.2 -9.6°
Drops below altitude 10° 16:55:00 10° 15° (NNE) 2,491 6.3 -10.6°
Enters shadow 16:57:09 - 21° (NNE) 3,274 6.9 -10.9°
